EWG40P EDDH-ESSA

Flight info

Callsign EWG40P
Flight time 1h 14m
Altitude 37000
Route LUGEG3G LUGEG P605 MEGAR DCT BEDOS N851 PELUP Z226 NILUG
Aircraft A320/M-SDE3FGHIRWY/LB1

Departure

Time 2026-04-23 17:47
Airport Hamburg Helmut Schmidt Airport (EDDH)

Arrival

Time 2026-04-23 19:01
Airport Stockholm-Arlanda Airport (ESSA)
Time Latitude Longitude Altitude Speed Heading
2026-04-23 17:06 53.63218 9.99957 45 ft 0 kts 322°
2026-04-23 17:37 53.63206 9.99959 50 ft 2 kts 314°
2026-04-23 17:37 53.63194 9.99977 47 ft 2 kts 320°
2026-04-23 17:37 53.63178 10.00024 48 ft 2 kts 254°
2026-04-23 17:38 53.63185 10.00046 45 ft 1 kts 227°
2026-04-23 17:38 53.63186 10.00048 46 ft 0 kts 227°
2026-04-23 17:42 53.63168 10.00009 50 ft 6 kts 232°
2026-04-23 17:42 53.63136 9.99939 50 ft 8 kts 231°
2026-04-23 17:42 53.63082 9.99894 50 ft 10 kts 179°
2026-04-23 17:43 53.63015 9.99942 50 ft 13 kts 153°
2026-04-23 17:43 53.62970 9.99980 50 ft 4 kts 153°
2026-04-23 17:43 53.62938 10.00000 50 ft 5 kts 170°
2026-04-23 17:43 53.62915 9.99977 48 ft 3 kts 234°
2026-04-23 17:44 53.62903 9.99943 50 ft 3 kts 240°
2026-04-23 17:44 53.62899 9.99928 50 ft 0 kts 243°
2026-04-23 17:44 53.62876 9.99852 50 ft 8 kts 243°
2026-04-23 17:45 53.62871 9.99740 47 ft 11 kts 318°
2026-04-23 17:45 53.62890 9.99723 49 ft 0 kts 331°
2026-04-23 17:46 53.63016 9.99613 49 ft 55 kts 333°
2026-04-23 17:46 53.63561 9.99145 51 ft 118 kts 333°
2026-04-23 17:46 53.64451 9.98372 99 ft 163 kts 328°
2026-04-23 17:47 53.65452 9.97548 776 ft 160 kts 330°
2026-04-23 17:47 53.66439 9.96716 1504 ft 163 kts 331°
2026-04-23 17:47 53.68716 9.94855 2443 ft 191 kts 343°
2026-04-23 17:48 53.70053 9.94665 3248 ft 195 kts 356°
2026-04-23 17:48 53.71415 9.94666 4034 ft 197 kts 357°
2026-04-23 17:48 53.72772 9.94864 4769 ft 203 kts 15°
2026-04-23 17:48 53.73963 9.96280 5342 ft 228 kts 48°
2026-04-23 17:49 53.74784 9.98785 5686 ft 257 kts 58°
2026-04-23 17:49 53.75583 10.01570 6325 ft 268 kts 59°
2026-04-23 17:49 53.76385 10.04442 7138 ft 272 kts 59°
2026-04-23 17:49 53.77199 10.07357 7931 ft 276 kts 59°
2026-04-23 17:50 53.78028 10.10298 8745 ft 279 kts 59°
2026-04-23 17:50 53.79735 10.16293 10327 ft 286 kts 59°
2026-04-23 17:50 53.80627 10.19392 10729 ft 304 kts 59°
2026-04-23 17:51 53.81594 10.22731 10921 ft 328 kts 59°
2026-04-23 17:51 53.82630 10.26314 11133 ft 348 kts 60°
2026-04-23 17:51 53.84782 10.33856 12344 ft 360 kts 60°
2026-04-23 17:52 53.85868 10.37699 13038 ft 364 kts 60°
2026-04-23 17:52 53.88075 10.45528 14337 ft 371 kts 61°
2026-04-23 17:52 53.89195 10.49496 14915 ft 375 kts 61°
2026-04-23 17:53 53.91475 10.57544 16081 ft 382 kts 61°
2026-04-23 17:53 53.92629 10.61624 16655 ft 385 kts 61°
2026-04-23 17:53 53.93867 10.65666 17221 ft 387 kts 55°
2026-04-23 17:54 53.95475 10.69313 17783 ft 387 kts 45°
2026-04-23 17:54 53.97326 10.72669 18349 ft 390 kts 44°
2026-04-23 17:54 54.01070 10.79462 19358 ft 397 kts 44°
2026-04-23 17:55 54.04863 10.86381 20372 ft 403 kts 44°
2026-04-23 17:55 54.06779 10.89883 20861 ft 405 kts 44°
2026-04-23 17:55 54.08705 10.93408 21344 ft 408 kts 44°
2026-04-23 17:56 54.10617 10.96912 21807 ft 410 kts 44°
2026-04-23 17:56 54.14522 11.04095 22715 ft 415 kts 44°
2026-04-23 17:56 54.16490 11.07748 23155 ft 418 kts 44°
2026-04-23 17:57 54.18456 11.11418 23585 ft 420 kts 44°
2026-04-23 17:57 54.20440 11.15120 23959 ft 423 kts 44°
2026-04-23 17:57 54.24422 11.22570 24684 ft 426 kts 44°
2026-04-23 17:58 54.26397 11.26275 25059 ft 426 kts 44°
2026-04-23 17:58 54.28399 11.30033 25410 ft 428 kts 44°
2026-04-23 17:58 54.30407 11.33807 25742 ft 429 kts 44°
2026-04-23 17:58 54.32425 11.37605 26056 ft 431 kts 44°
2026-04-23 17:59 54.34448 11.41415 26377 ft 433 kts 44°
2026-04-23 17:59 54.36475 11.45238 26689 ft 434 kts 44°
2026-04-23 17:59 54.38511 11.49078 26994 ft 436 kts 44°
2026-04-23 17:59 54.40554 11.52937 27291 ft 438 kts 44°
2026-04-23 18:00 54.42604 11.56815 27571 ft 439 kts 44°
2026-04-23 18:00 54.44657 11.60704 27852 ft 441 kts 45°
2026-04-23 18:00 54.46827 11.64430 28097 ft 440 kts 37°
2026-04-23 18:00 54.49287 11.67531 28345 ft 438 kts 29°
2026-04-23 18:01 54.51865 11.70342 28581 ft 440 kts 30°
2026-04-23 18:01 54.54447 11.73179 28822 ft 441 kts 30°
2026-04-23 18:01 54.56163 11.75076 28994 ft 442 kts 30°
2026-04-23 18:01 54.58753 11.77950 29226 ft 443 kts 30°
2026-04-23 18:02 54.61341 11.80827 29557 ft 442 kts 30°
2026-04-23 18:02 54.63925 11.83702 29892 ft 441 kts 30°
2026-04-23 18:02 54.66501 11.86568 30225 ft 440 kts 30°
2026-04-23 18:02 54.69072 11.89432 30520 ft 439 kts 30°
2026-04-23 18:03 54.71636 11.92293 30788 ft 438 kts 30°
2026-04-23 18:03 54.74198 11.95157 31065 ft 438 kts 30°
2026-04-23 18:03 54.76752 11.98017 31342 ft 437 kts 30°
2026-04-23 18:03 54.79298 12.00876 31664 ft 435 kts 29°
2026-04-23 18:04 54.81834 12.03726 32016 ft 432 kts 29°
2026-04-23 18:04 54.84351 12.06557 32327 ft 431 kts 29°
2026-04-23 18:04 54.86859 12.09383 32619 ft 430 kts 29°
2026-04-23 18:04 54.89365 12.12204 32897 ft 429 kts 29°
2026-04-23 18:05 54.91865 12.15020 33190 ft 428 kts 28°
2026-04-23 18:05 54.94358 12.17834 33485 ft 427 kts 29°
2026-04-23 18:05 54.96843 12.20646 33777 ft 426 kts 29°
2026-04-23 18:05 54.99325 12.23463 34060 ft 425 kts 29°
2026-04-23 18:06 55.01803 12.26279 34311 ft 424 kts 29°
2026-04-23 18:06 55.04276 12.29086 34551 ft 424 kts 29°
2026-04-23 18:06 55.06744 12.31891 34774 ft 424 kts 29°
2026-04-23 18:06 55.09211 12.34702 34991 ft 423 kts 29°
2026-04-23 18:07 55.11675 12.37520 35195 ft 423 kts 29°
2026-04-23 18:07 55.14115 12.40314 35397 ft 423 kts 29°
2026-04-23 18:07 55.16576 12.43140 35602 ft 423 kts 29°
2026-04-23 18:07 55.19032 12.45964 35803 ft 422 kts 29°
2026-04-23 18:08 55.21488 12.48786 36001 ft 422 kts 29°
2026-04-23 18:08 55.23941 12.51607 36179 ft 422 kts 29°
2026-04-23 18:08 55.26395 12.54431 36350 ft 422 kts 29°
2026-04-23 18:08 55.28847 12.57260 36532 ft 421 kts 29°
2026-04-23 18:09 55.31295 12.60090 36696 ft 421 kts 29°
2026-04-23 18:09 55.33741 12.62924 36863 ft 421 kts 29°
2026-04-23 18:09 55.36154 12.65722 37043 ft 420 kts 29°
2026-04-23 18:10 55.41060 12.71421 37128 ft 423 kts 29°
2026-04-23 18:10 55.45977 12.77152 37124 ft 424 kts 29°
2026-04-23 18:11 55.50891 12.82903 37125 ft 424 kts 30°
2026-04-23 18:11 55.55804 12.88674 37136 ft 424 kts 30°
2026-04-23 18:12 55.60664 12.94597 37162 ft 425 kts 32°
2026-04-23 18:12 55.65333 13.01037 37167 ft 425 kts 34°
2026-04-23 18:13 55.69936 13.07600 37154 ft 424 kts 33°
2026-04-23 18:13 55.74562 13.14072 37143 ft 423 kts 33°
2026-04-23 18:14 55.79201 13.20475 37137 ft 422 kts 33°
2026-04-23 18:14 55.83812 13.26852 37136 ft 422 kts 33°
2026-04-23 18:15 55.88435 13.33298 37136 ft 422 kts 33°
2026-04-23 18:15 55.93063 13.39770 37130 ft 422 kts 33°
2026-04-23 18:16 55.97685 13.46255 37133 ft 422 kts 33°
2026-04-23 18:16 56.02304 13.52745 37125 ft 422 kts 33°
2026-04-23 18:17 56.09225 13.62526 37124 ft 422 kts 33°
2026-04-23 18:17 56.13835 13.69070 37111 ft 423 kts 33°
2026-04-23 18:18 56.18448 13.75626 37102 ft 423 kts 33°
2026-04-23 18:18 56.23058 13.82209 37100 ft 424 kts 33°
2026-04-23 18:19 56.27668 13.88808 37119 ft 423 kts 33°
2026-04-23 18:19 56.32264 13.95406 37116 ft 421 kts 33°
2026-04-23 18:20 56.36814 14.01962 37115 ft 421 kts 33°
2026-04-23 18:20 56.41389 14.08558 37105 ft 421 kts 33°
2026-04-23 18:21 56.45962 14.15193 37101 ft 421 kts 33°
2026-04-23 18:21 56.50522 14.21834 37094 ft 421 kts 33°
2026-04-23 18:22 56.55082 14.28498 37082 ft 421 kts 33°
2026-04-23 18:22 56.59645 14.35188 37077 ft 421 kts 33°
2026-04-23 18:23 56.66489 14.45234 37068 ft 422 kts 33°
2026-04-23 18:24 56.73336 14.55344 37061 ft 423 kts 33°
2026-04-23 18:25 56.80185 14.65506 37079 ft 423 kts 33°
2026-04-23 18:25 56.84747 14.72306 37070 ft 423 kts 33°
2026-04-23 18:26 56.89308 14.79133 37063 ft 423 kts 33°
2026-04-23 18:26 56.93839 14.85930 37096 ft 423 kts 33°
2026-04-23 18:27 56.98384 14.92762 37114 ft 422 kts 33°
2026-04-23 18:27 57.02923 14.99630 37133 ft 422 kts 33°
2026-04-23 18:28 57.07449 15.06485 37119 ft 421 kts 33°
2026-04-23 18:28 57.11963 15.13328 37114 ft 420 kts 33°
2026-04-23 18:29 57.16466 15.20177 37102 ft 420 kts 33°
2026-04-23 18:29 57.20954 15.27056 37100 ft 419 kts 33°
2026-04-23 18:30 57.25434 15.33946 37096 ft 419 kts 33°
2026-04-23 18:30 57.29918 15.40834 37107 ft 419 kts 33°
2026-04-23 18:31 57.34398 15.47724 37091 ft 419 kts 33°
2026-04-23 18:31 57.38864 15.54638 37091 ft 419 kts 33°
2026-04-23 18:32 57.43299 15.61531 37087 ft 419 kts 33°
2026-04-23 18:32 57.47764 15.68507 37086 ft 419 kts 33°
2026-04-23 18:33 57.52228 15.75482 37109 ft 419 kts 33°
2026-04-23 18:33 57.56688 15.82467 37104 ft 418 kts 34°
2026-04-23 18:34 57.61091 15.89410 37065 ft 411 kts 33°
2026-04-23 18:34 57.65452 15.96310 37065 ft 410 kts 33°
2026-04-23 18:35 57.69808 16.03210 37064 ft 410 kts 33°
2026-04-23 18:35 57.74163 16.10118 37069 ft 411 kts 33°
2026-04-23 18:36 57.78513 16.17059 37061 ft 411 kts 33°
2026-04-23 18:36 57.82857 16.24027 37060 ft 411 kts 33°
2026-04-23 18:37 57.87199 16.30994 37055 ft 410 kts 33°
2026-04-23 18:37 57.91539 16.37981 37054 ft 410 kts 34°
2026-04-23 18:38 57.95875 16.44990 37055 ft 411 kts 34°
2026-04-23 18:38 58.00203 16.52002 37077 ft 410 kts 33°
2026-04-23 18:38 58.02360 16.55509 36823 ft 408 kts 34°
2026-04-23 18:39 58.04506 16.59011 36563 ft 408 kts 34°
2026-04-23 18:39 58.06649 16.62513 36288 ft 408 kts 34°
2026-04-23 18:39 58.08796 16.66019 36038 ft 408 kts 34°
2026-04-23 18:39 58.10946 16.69532 35787 ft 408 kts 34°
2026-04-23 18:40 58.13092 16.73046 35534 ft 409 kts 34°
2026-04-23 18:40 58.15244 16.76575 35286 ft 409 kts 34°
2026-04-23 18:40 58.17391 16.80100 35032 ft 409 kts 34°
2026-04-23 18:40 58.19543 16.83640 34777 ft 409 kts 34°
2026-04-23 18:41 58.21687 16.87177 34171 ft 409 kts 34°
2026-04-23 18:41 58.23835 16.90727 33350 ft 409 kts 34°
2026-04-23 18:41 58.25959 16.94240 32482 ft 410 kts 34°
2026-04-23 18:41 58.28110 16.97801 31580 ft 412 kts 35°
2026-04-23 18:42 58.30275 17.01396 30654 ft 414 kts 36°
2026-04-23 18:42 58.32478 17.05059 29632 ft 417 kts 36°
2026-04-23 18:42 58.34640 17.08658 28509 ft 420 kts 36°
2026-04-23 18:42 58.36840 17.12327 27691 ft 417 kts 36°
2026-04-23 18:43 58.39000 17.15955 27048 ft 410 kts 36°
2026-04-23 18:43 58.41134 17.19547 26203 ft 409 kts 36°
2026-04-23 18:43 58.43274 17.23140 25415 ft 408 kts 36°
2026-04-23 18:43 58.45397 17.26703 24761 ft 404 kts 36°
2026-04-23 18:44 58.47493 17.30231 24138 ft 399 kts 36°
2026-04-23 18:44 58.49566 17.33732 23501 ft 396 kts 36°
2026-04-23 18:44 58.51617 17.37203 22781 ft 392 kts 36°
2026-04-23 18:44 58.53654 17.40647 22113 ft 389 kts 36°
2026-04-23 18:45 58.55676 17.44064 21433 ft 386 kts 36°
2026-04-23 18:45 58.57011 17.46321 20908 ft 386 kts 37°
2026-04-23 18:45 58.59021 17.49729 20228 ft 385 kts 37°
2026-04-23 18:45 58.61015 17.53123 19634 ft 382 kts 37°
2026-04-23 18:46 58.63612 17.57560 19007 ft 374 kts 37°
2026-04-23 18:46 58.65546 17.60871 18486 ft 371 kts 37°
2026-04-23 18:46 58.66841 17.63089 18111 ft 369 kts 37°
2026-04-23 18:46 58.68751 17.66362 17527 ft 366 kts 37°
2026-04-23 18:47 58.70622 17.69570 16942 ft 364 kts 37°
2026-04-23 18:47 58.72509 17.72811 16353 ft 363 kts 37°
2026-04-23 18:47 58.74386 17.76037 15766 ft 361 kts 37°
2026-04-23 18:47 58.76279 17.79194 15188 ft 357 kts 31°
2026-04-23 18:48 58.78496 17.81165 14864 ft 340 kts 11°
2026-04-23 18:48 58.80798 17.82062 14400 ft 336 kts
2026-04-23 18:48 58.83088 17.82861 13891 ft 334 kts
2026-04-23 18:48 58.85342 17.83653 13334 ft 333 kts
2026-04-23 18:49 58.87646 17.84457 12769 ft 331 kts
2026-04-23 18:49 58.89880 17.85224 12227 ft 329 kts
2026-04-23 18:49 58.92126 17.85988 11685 ft 327 kts
2026-04-23 18:49 58.94362 17.86739 11157 ft 325 kts
2026-04-23 18:50 58.95863 17.87238 10809 ft 323 kts
2026-04-23 18:50 58.98778 17.88194 10276 ft 315 kts
2026-04-23 18:50 59.00879 17.88881 10093 ft 295 kts
2026-04-23 18:50 59.02862 17.89533 9527 ft 285 kts
2026-04-23 18:51 59.04823 17.89746 8924 ft 281 kts 354°
2026-04-23 18:51 59.06764 17.89376 8501 ft 279 kts 353°
2026-04-23 18:51 59.08684 17.88969 8089 ft 276 kts 353°
2026-04-23 18:51 59.10584 17.88565 7656 ft 274 kts 353°
2026-04-23 18:52 59.12470 17.88173 7305 ft 269 kts 353°
2026-04-23 18:52 59.14289 17.87803 7187 ft 257 kts 353°
2026-04-23 18:52 59.16035 17.87456 6929 ft 250 kts 353°
2026-04-23 18:52 59.17755 17.87119 6576 ft 247 kts 353°
2026-04-23 18:53 59.19461 17.86791 6188 ft 245 kts 353°
2026-04-23 18:53 59.21157 17.86467 5782 ft 244 kts 353°
2026-04-23 18:53 59.22843 17.86147 5355 ft 243 kts 353°
2026-04-23 18:53 59.24520 17.85834 4939 ft 242 kts 353°
2026-04-23 18:54 59.26179 17.85528 4655 ft 235 kts 353°
2026-04-23 18:54 59.27788 17.85230 4310 ft 231 kts 353°
2026-04-23 18:54 59.29384 17.84921 4040 ft 229 kts 353°
2026-04-23 18:54 59.30957 17.84607 4033 ft 224 kts 353°
2026-04-23 18:55 59.32488 17.84467 4033 ft 223 kts
2026-04-23 18:55 59.34035 17.84814 4036 ft 224 kts
2026-04-23 18:55 59.35571 17.85344 4035 ft 224 kts
2026-04-23 18:55 59.37116 17.85901 4035 ft 224 kts
2026-04-23 18:56 59.38130 17.86264 4035 ft 224 kts
2026-04-23 18:56 59.40132 17.86981 4032 ft 209 kts
2026-04-23 18:56 59.41548 17.87487 4034 ft 206 kts
2026-04-23 18:56 59.42955 17.87989 4002 ft 204 kts
2026-04-23 18:57 59.44329 17.88481 3800 ft 198 kts
2026-04-23 18:57 59.45672 17.88962 3547 ft 195 kts
2026-04-23 18:57 59.46998 17.89437 3300 ft 193 kts
2026-04-23 18:57 59.48314 17.89909 3034 ft 191 kts
2026-04-23 18:58 59.49610 17.90375 2771 ft 186 kts
2026-04-23 18:58 59.50872 17.90829 2525 ft 181 kts
2026-04-23 18:58 59.52078 17.91262 2256 ft 174 kts
2026-04-23 18:58 59.53242 17.91681 2020 ft 164 kts
2026-04-23 18:59 59.54316 17.92069 1804 ft 150 kts
2026-04-23 18:59 59.55307 17.92426 1598 ft 140 kts
2026-04-23 18:59 59.56248 17.92765 1426 ft 136 kts
2026-04-23 18:59 59.57162 17.93094 1241 ft 135 kts
2026-04-23 19:00 59.58084 17.93427 1051 ft 134 kts
2026-04-23 19:00 59.59005 17.93755 858 ft 135 kts
2026-04-23 19:00 59.59930 17.94086 709 ft 135 kts
2026-04-23 19:00 59.60864 17.94423 522 ft 137 kts 12°
2026-04-23 19:01 59.61802 17.94764 368 ft 137 kts 11°
2026-04-23 19:01 59.62739 17.95105 189 ft 136 kts 12°
2026-04-23 19:01 59.63574 17.95414 144 ft 90 kts 10°
2026-04-23 19:01 59.63915 17.95539 144 ft 29 kts 10°
2026-04-23 19:02 59.64047 17.95549 144 ft 28 kts 353°
2026-04-23 19:02 59.64254 17.95438 139 ft 21 kts 341°
2026-04-23 19:02 59.64371 17.95358 138 ft 18 kts 341°
2026-04-23 19:02 59.64492 17.95335 138 ft 16 kts
2026-04-23 19:03 59.64539 17.95190 138 ft 15 kts 242°
2026-04-23 19:03 59.64483 17.95025 138 ft 14 kts 239°
2026-04-23 19:03 59.64435 17.94869 138 ft 14 kts 238°
2026-04-23 19:03 59.64367 17.94661 138 ft 23 kts 237°
2026-04-23 19:04 59.64278 17.94388 138 ft 24 kts 237°
2026-04-23 19:04 59.64185 17.94094 138 ft 26 kts 238°
2026-04-23 19:04 59.64089 17.93787 138 ft 23 kts 239°
2026-04-23 19:04 59.64019 17.93566 138 ft 18 kts 237°
2026-04-23 19:05 59.63988 17.93348 138 ft 16 kts 274°
2026-04-23 19:05 59.64028 17.93141 138 ft 16 kts 299°
2026-04-23 19:05 59.64081 17.92953 137 ft 14 kts 297°
2026-04-23 19:05 59.64147 17.92860 137 ft 12 kts 20°
2026-04-23 19:06 59.64210 17.92814 137 ft 11 kts 298°
2026-04-23 19:06 59.64264 17.92764 137 ft 10 kts 36°
2026-04-23 19:06 59.64324 17.92846 137 ft 10 kts 35°
2026-04-23 19:06 59.64335 17.92863 137 ft 0 kts 35°